Location: Sungai Apap
(2.6167°N, 113.3833°E)
Time: 15:09:27
(UTC+00:00)

USA 234 - Pass Details

Date: 25 May 2024
Orbit: 1100 x 1107 km, 123.0° (Epoch: 05 June)

Event Time Altitude Azimuth Distance (km) Brightness Sun altitude
Rises 20:33:57 0° 156° (SSE) 3,923 6.2 -24.3°
Reaches altitude 10° 20:36:32 10° 161° (SSE) 2,964 5.5 -23.8°
Maximum altitude 20:42:47 48° 234° (SW) 1,404 3.4 -22.3°
Drops below altitude 10° 20:49:01 10° 306° (NW) 2,954 5.2 -20.9°
Sets 20:51:35 0° 312° (NW) 3,909 5.9 -20.3°
